BCS434 LIRF-EDDP

Flight info

Callsign BCS434
Flight time 1h 35m
Altitude 36000
Route SOVAN DCT AMTEL DCT NEVMO DCT ALBET DCT DIKEM DCT SUMIR DCT BRENO DCT KONIN DCT ERNAS M726 LASGA T953 VOCIM T954 GOXLI GOXLI1R
Aircraft B77L/H-SDE1E2E3FGHIJ2J3J4J5M1RWXY/LB1D1

Departure

Time 2026-05-07 11:32
Airport Rome–Fiumicino Leonardo da Vinci International Airport (LIRF)

Arrival

Time 2026-05-07 13:07
Airport Leipzig/Halle Airport (EDDP)
Time Latitude Longitude Altitude Speed Heading
2026-05-07 11:17 41.80426 12.27114 21 ft 0 kts 160°
2026-05-07 11:25 41.80427 12.27113 21 ft 1 kts 160°
2026-05-07 11:25 41.80440 12.27107 25 ft 3 kts 158°
2026-05-07 11:25 41.80459 12.27097 24 ft 3 kts 155°
2026-05-07 11:26 41.80477 12.27085 25 ft 3 kts 152°
2026-05-07 11:26 41.80495 12.27072 25 ft 3 kts 149°
2026-05-07 11:26 41.80512 12.27058 24 ft 3 kts 146°
2026-05-07 11:26 41.80528 12.27043 24 ft 3 kts 141°
2026-05-07 11:27 41.80544 12.27025 24 ft 3 kts 136°
2026-05-07 11:27 41.80558 12.27006 23 ft 3 kts 129°
2026-05-07 11:27 41.80569 12.26985 24 ft 3 kts 117°
2026-05-07 11:27 41.80576 12.26962 24 ft 3 kts 98°
2026-05-07 11:28 41.80577 12.26944 24 ft 2 kts 76°
2026-05-07 11:28 41.80576 12.26938 24 ft 1 kts 70°
2026-05-07 11:30 41.80582 12.26959 24 ft 9 kts 68°
2026-05-07 11:30 41.80657 12.27042 18 ft 18 kts 11°
2026-05-07 11:30 41.80792 12.27045 14 ft 22 kts 347°
2026-05-07 11:31 41.80934 12.26969 15 ft 18 kts 320°
2026-05-07 11:31 41.80930 12.26819 15 ft 24 kts 254°
2026-05-07 11:31 41.80836 12.26486 21 ft 68 kts 249°
2026-05-07 11:31 41.80572 12.25533 19 ft 149 kts 248°
2026-05-07 11:32 41.79656 12.22269 1149 ft 191 kts 249°
2026-05-07 11:32 41.79160 12.20562 1977 ft 203 kts 257°
2026-05-07 11:32 41.79280 12.18638 2407 ft 219 kts 299°
2026-05-07 11:33 41.80254 12.17061 3098 ft 223 kts 312°
2026-05-07 11:33 41.81277 12.15453 3904 ft 230 kts 309°
2026-05-07 11:33 41.82300 12.13759 4772 ft 240 kts 308°
2026-05-07 11:33 41.83377 12.11947 5522 ft 255 kts 308°
2026-05-07 11:34 41.84667 12.10304 6502 ft 262 kts 334°
2026-05-07 11:34 41.86424 12.09563 7315 ft 270 kts 344°
2026-05-07 11:34 41.88264 12.08902 8210 ft 277 kts 342°
2026-05-07 11:34 41.90159 12.08194 8913 ft 287 kts 342°
2026-05-07 11:35 41.92109 12.07466 9434 ft 297 kts 342°
2026-05-07 11:35 41.94141 12.06707 9812 ft 309 kts 342°
2026-05-07 11:35 41.96241 12.05975 10346 ft 315 kts 347°
2026-05-07 11:35 41.98467 12.05658 10844 ft 326 kts 354°
2026-05-07 11:36 42.00751 12.05526 11355 ft 331 kts 355°
2026-05-07 11:36 42.03072 12.05372 11869 ft 338 kts 354°
2026-05-07 11:36 42.05447 12.05169 12380 ft 346 kts 353°
2026-05-07 11:36 42.07871 12.04936 12900 ft 353 kts 353°
2026-05-07 11:37 42.10339 12.04693 13436 ft 358 kts 353°
2026-05-07 11:37 42.12804 12.04453 13951 ft 362 kts 352°
2026-05-07 11:37 42.15348 12.04204 14428 ft 368 kts 352°
2026-05-07 11:37 42.17918 12.03953 14903 ft 372 kts 352°
2026-05-07 11:38 42.20490 12.03571 15364 ft 372 kts 348°
2026-05-07 11:38 42.23048 12.03015 15866 ft 373 kts 346°
2026-05-07 11:38 42.25607 12.02403 16366 ft 375 kts 346°
2026-05-07 11:38 42.28180 12.01782 16872 ft 376 kts 346°
2026-05-07 11:39 42.30770 12.01167 17398 ft 379 kts 346°
2026-05-07 11:39 42.33370 12.00562 17926 ft 382 kts 346°
2026-05-07 11:39 42.36001 11.99958 18443 ft 385 kts 346°
2026-05-07 11:39 42.38657 11.99355 18929 ft 389 kts 346°
2026-05-07 11:40 42.41342 11.98749 19407 ft 392 kts 346°
2026-05-07 11:40 42.44042 11.98140 19893 ft 395 kts 346°
2026-05-07 11:40 42.46767 11.97526 20387 ft 398 kts 345°
2026-05-07 11:40 42.49511 11.96907 20888 ft 401 kts 345°
2026-05-07 11:41 42.52272 11.96285 21406 ft 403 kts 345°
2026-05-07 11:41 42.55045 11.95659 21908 ft 405 kts 345°
2026-05-07 11:41 42.57828 11.95031 22438 ft 407 kts 345°
2026-05-07 11:41 42.60626 11.94398 22963 ft 408 kts 344°
2026-05-07 11:42 42.63425 11.93765 23504 ft 409 kts 344°
2026-05-07 11:42 42.66235 11.93128 23979 ft 409 kts 344°
2026-05-07 11:42 42.69037 11.92492 24431 ft 409 kts 343°
2026-05-07 11:42 42.71816 11.91861 24913 ft 409 kts 343°
2026-05-07 11:43 42.74658 11.91216 25391 ft 409 kts 343°
2026-05-07 11:43 42.77423 11.90586 25871 ft 408 kts 343°
2026-05-07 11:43 42.80218 11.89945 26364 ft 406 kts 341°
2026-05-07 11:43 42.82921 11.89022 26846 ft 398 kts 334°
2026-05-07 11:44 42.85489 11.87720 27358 ft 390 kts 328°
2026-05-07 11:44 42.87899 11.86087 27852 ft 383 kts 323°
2026-05-07 11:44 42.90232 11.84372 28380 ft 380 kts 323°
2026-05-07 11:44 42.92552 11.82647 28919 ft 377 kts 322°
2026-05-07 11:45 42.94840 11.80948 29426 ft 372 kts 322°
2026-05-07 11:45 42.97103 11.79275 29967 ft 368 kts 322°
2026-05-07 11:45 42.99357 11.77611 30258 ft 369 kts 322°
2026-05-07 11:46 43.03957 11.74209 30475 ft 380 kts 323°
2026-05-07 11:46 43.06278 11.72503 30827 ft 377 kts 323°
2026-05-07 11:46 43.08582 11.70811 31160 ft 376 kts 322°
2026-05-07 11:46 43.10896 11.69105 31275 ft 380 kts 323°
2026-05-07 11:47 43.13242 11.67371 31369 ft 385 kts 323°
2026-05-07 11:47 43.15605 11.65627 31607 ft 386 kts 323°
2026-05-07 11:47 43.17964 11.63889 31955 ft 383 kts 323°
2026-05-07 11:47 43.20365 11.62255 32136 ft 391 kts 329°
2026-05-07 11:48 43.23002 11.61040 32058 ft 409 kts 337°
2026-05-07 11:48 43.25836 11.60287 32194 ft 420 kts 345°
2026-05-07 11:48 43.28725 11.59889 32644 ft 415 kts 346°
2026-05-07 11:48 43.31590 11.59556 33038 ft 412 kts 347°
2026-05-07 11:49 43.34473 11.59226 33022 ft 420 kts 347°
2026-05-07 11:49 43.40343 11.58527 33277 ft 424 kts 347°
2026-05-07 11:49 43.43298 11.58173 33689 ft 420 kts 346°
2026-05-07 11:50 43.46188 11.57813 33713 ft 425 kts 346°
2026-05-07 11:50 43.52187 11.57043 33911 ft 430 kts 346°
2026-05-07 11:50 43.55118 11.56671 34255 ft 426 kts 346°
2026-05-07 11:51 43.58066 11.56295 34397 ft 428 kts 346°
2026-05-07 11:51 43.64066 11.55515 34466 ft 436 kts 346°
2026-05-07 11:51 43.67082 11.55128 34760 ft 433 kts 346°
2026-05-07 11:52 43.70079 11.54746 34994 ft 432 kts 346°
2026-05-07 11:52 43.76126 11.53961 35026 ft 440 kts 347°
2026-05-07 11:52 43.79173 11.53567 35239 ft 439 kts 347°
2026-05-07 11:53 43.82207 11.53177 35466 ft 437 kts 347°
2026-05-07 11:53 43.88310 11.52384 35516 ft 444 kts 347°
2026-05-07 11:53 43.91392 11.51983 35667 ft 444 kts 347°
2026-05-07 11:54 43.94461 11.51586 35890 ft 442 kts 347°
2026-05-07 11:54 44.00630 11.50784 35988 ft 448 kts 347°
2026-05-07 11:55 44.06872 11.49967 35993 ft 454 kts 347°
2026-05-07 11:55 44.13205 11.49135 36002 ft 462 kts 347°
2026-05-07 11:56 44.19616 11.48294 35999 ft 470 kts 347°
2026-05-07 11:56 44.26179 11.47432 36011 ft 477 kts 347°
2026-05-07 11:57 44.32795 11.46562 36021 ft 485 kts 347°
2026-05-07 11:57 44.39568 11.45671 36010 ft 492 kts 348°
2026-05-07 11:58 44.45305 11.44915 36009 ft 497 kts 348°
2026-05-07 11:58 44.52182 11.44004 36008 ft 502 kts 348°
2026-05-07 11:59 44.59175 11.43075 36011 ft 507 kts 348°
2026-05-07 11:59 44.66228 11.42138 36004 ft 511 kts 348°
2026-05-07 12:00 44.73305 11.41197 36004 ft 512 kts 348°
2026-05-07 12:00 44.80412 11.40247 35997 ft 512 kts 348°
2026-05-07 12:01 44.87500 11.39385 35996 ft 514 kts 352°
2026-05-07 12:01 44.94697 11.39923 35993 ft 522 kts
2026-05-07 12:02 45.01867 11.41594 36003 ft 522 kts
2026-05-07 12:02 45.09026 11.43303 36002 ft 521 kts
2026-05-07 12:03 45.16180 11.44930 36000 ft 521 kts
2026-05-07 12:03 45.23355 11.46532 36009 ft 523 kts
2026-05-07 12:04 45.30464 11.48130 36012 ft 524 kts
2026-05-07 12:04 45.37675 11.49759 36012 ft 525 kts
2026-05-07 12:05 45.44902 11.50419 36002 ft 517 kts 353°
2026-05-07 12:05 45.51993 11.49410 36013 ft 511 kts 347°
2026-05-07 12:06 45.58986 11.48055 36011 ft 511 kts 347°
2026-05-07 12:06 45.66034 11.46739 36015 ft 511 kts 347°
2026-05-07 12:07 45.73085 11.45471 36019 ft 511 kts 348°
2026-05-07 12:07 45.80136 11.44211 36028 ft 511 kts 348°
2026-05-07 12:08 45.87196 11.42941 36021 ft 511 kts 348°
2026-05-07 12:08 45.91380 11.42187 36026 ft 510 kts 348°
2026-05-07 12:09 45.98421 11.40912 36028 ft 510 kts 348°
2026-05-07 12:09 46.05476 11.39635 36025 ft 510 kts 348°
2026-05-07 12:10 46.12466 11.38391 36043 ft 511 kts 348°
2026-05-07 12:10 46.19542 11.37137 36053 ft 512 kts 348°
2026-05-07 12:11 46.26642 11.35993 36045 ft 516 kts 353°
2026-05-07 12:11 46.33838 11.36022 35945 ft 519 kts 357°
2026-05-07 12:12 46.37010 11.36143 35959 ft 519 kts 358°
2026-05-07 12:12 46.43867 11.36399 35950 ft 518 kts 357°
2026-05-07 12:13 46.51086 11.36601 35942 ft 518 kts 357°
2026-05-07 12:13 46.58293 11.36764 35938 ft 517 kts 357°
2026-05-07 12:14 46.65465 11.36929 35978 ft 515 kts 357°
2026-05-07 12:14 46.72637 11.37097 35983 ft 516 kts 357°
2026-05-07 12:15 46.79766 11.37265 35982 ft 516 kts 357°
2026-05-07 12:15 46.86995 11.37438 35985 ft 515 kts 357°
2026-05-07 12:16 46.94155 11.37608 35973 ft 515 kts 358°
2026-05-07 12:16 47.01306 11.37738 35967 ft 514 kts 356°
2026-05-07 12:17 47.08472 11.37655 35968 ft 515 kts 356°
2026-05-07 12:17 47.15589 11.37540 35968 ft 514 kts 356°
2026-05-07 12:18 47.22793 11.37443 35969 ft 514 kts 356°
2026-05-07 12:18 47.29884 11.37370 35978 ft 516 kts 356°
2026-05-07 12:19 47.37087 11.37300 35972 ft 516 kts 356°
2026-05-07 12:19 47.44269 11.37228 35975 ft 516 kts 356°
2026-05-07 12:20 47.51430 11.37157 35981 ft 514 kts 356°
2026-05-07 12:20 47.58567 11.37082 36003 ft 512 kts 356°
2026-05-07 12:21 47.65694 11.37007 36014 ft 512 kts 356°
2026-05-07 12:21 47.72598 11.36935 36007 ft 512 kts 356°
2026-05-07 12:22 47.79728 11.36861 36014 ft 512 kts 357°
2026-05-07 12:22 47.86845 11.36692 36023 ft 511 kts 353°
2026-05-07 12:23 47.93911 11.35700 36020 ft 510 kts 351°
2026-05-07 12:23 48.00975 11.34564 36022 ft 510 kts 351°
2026-05-07 12:24 48.08031 11.33468 36028 ft 509 kts 352°
2026-05-07 12:24 48.13887 11.32589 36016 ft 509 kts 352°
2026-05-07 12:25 48.22019 11.31378 36025 ft 508 kts 352°
2026-05-07 12:25 48.29047 11.30327 36023 ft 507 kts 352°
2026-05-07 12:26 48.36072 11.29270 36020 ft 507 kts 352°
2026-05-07 12:26 48.43098 11.28209 36023 ft 507 kts 352°
2026-05-07 12:27 48.50124 11.27146 36020 ft 507 kts 352°
2026-05-07 12:27 48.57147 11.26080 36024 ft 507 kts 352°
2026-05-07 12:28 48.64170 11.25011 36025 ft 507 kts 352°
2026-05-07 12:28 48.71181 11.23941 36016 ft 506 kts 352°
2026-05-07 12:29 48.78193 11.22868 36025 ft 506 kts 352°
2026-05-07 12:29 48.85200 11.21865 36020 ft 506 kts 355°
2026-05-07 12:30 48.92263 11.21816 36031 ft 507 kts 359°
2026-05-07 12:30 48.99282 11.21954 36022 ft 508 kts 359°
2026-05-07 12:31 49.05103 11.22019 36017 ft 508 kts 358°
2026-05-07 12:31 49.12056 11.22054 36025 ft 506 kts 358°
2026-05-07 12:32 49.19087 11.22086 36018 ft 505 kts 358°
2026-05-07 12:32 49.26128 11.22135 36030 ft 505 kts 358°
2026-05-07 12:33 49.36671 11.22235 36023 ft 505 kts 358°
2026-05-07 12:33 49.43702 11.22299 36022 ft 505 kts 359°
2026-05-07 12:34 49.50681 11.22361 36026 ft 504 kts 359°
2026-05-07 12:34 49.57733 11.22420 36026 ft 504 kts 358°
2026-05-07 12:35 49.64738 11.22623 36027 ft 499 kts
2026-05-07 12:35 49.71709 11.22532 36026 ft 504 kts 357°
2026-05-07 12:36 49.78765 11.22473 36018 ft 508 kts 359°
2026-05-07 12:36 49.85815 11.22519 35966 ft 511 kts 359°
2026-05-07 12:37 49.92908 11.22554 35974 ft 502 kts 359°
2026-05-07 12:37 49.99823 11.22576 35967 ft 500 kts 359°
2026-05-07 12:38 50.06802 11.22597 35980 ft 503 kts 359°
2026-05-07 12:38 50.13825 11.22637 35983 ft 505 kts 359°
2026-05-07 12:39 50.20864 11.22691 35967 ft 506 kts 359°
2026-05-07 12:39 50.27899 11.22743 35982 ft 506 kts 359°
2026-05-07 12:40 50.34945 11.22792 35671 ft 506 kts 359°
2026-05-07 12:40 50.38439 11.22770 35359 ft 499 kts 357°
2026-05-07 12:40 50.40734 11.22638 35171 ft 494 kts 356°
2026-05-07 12:41 50.45270 11.22231 34780 ft 483 kts 355°
2026-05-07 12:41 50.48608 11.21917 34491 ft 477 kts 355°
2026-05-07 12:41 50.51911 11.21640 34214 ft 474 kts 356°
2026-05-07 12:41 50.55199 11.21394 33940 ft 472 kts 356°
2026-05-07 12:42 50.58416 11.21166 33543 ft 463 kts 358°
2026-05-07 12:42 50.61599 11.21346 32995 ft 454 kts
2026-05-07 12:42 50.64662 11.22254 32456 ft 445 kts 15°
2026-05-07 12:42 50.67588 11.23704 31944 ft 434 kts 24°
2026-05-07 12:43 50.70307 11.25643 31417 ft 423 kts 26°
2026-05-07 12:43 50.72936 11.27599 30899 ft 413 kts 26°
2026-05-07 12:43 50.75500 11.29511 30300 ft 404 kts 26°
2026-05-07 12:43 50.78014 11.31376 29628 ft 394 kts 26°
2026-05-07 12:44 50.80482 11.33196 28926 ft 387 kts 26°
2026-05-07 12:44 50.82906 11.34977 28268 ft 384 kts 26°
2026-05-07 12:44 50.85327 11.36752 27647 ft 383 kts 26°
2026-05-07 12:44 50.87744 11.38523 26967 ft 381 kts 25°
2026-05-07 12:45 50.90134 11.40274 26334 ft 377 kts 25°
2026-05-07 12:45 50.92500 11.42009 25706 ft 373 kts 25°
2026-05-07 12:45 50.94812 11.43708 25068 ft 369 kts 25°
2026-05-07 12:45 50.97166 11.45439 24433 ft 365 kts 25°
2026-05-07 12:46 50.98679 11.46553 24062 ft 362 kts 24°
2026-05-07 12:46 51.01743 11.48809 23019 ft 362 kts 24°
2026-05-07 12:46 51.04007 11.50479 22238 ft 358 kts 24°
2026-05-07 12:46 51.05494 11.51577 21724 ft 355 kts 24°
2026-05-07 12:47 51.07720 11.53225 20938 ft 349 kts 26°
2026-05-07 12:47 51.10192 11.56336 19874 ft 343 kts 56°
2026-05-07 12:47 51.10984 11.58549 19373 ft 339 kts 67°
2026-05-07 12:47 51.11613 11.62122 18650 ft 334 kts 83°
2026-05-07 12:48 51.11803 11.65779 17886 ft 328 kts 86°
2026-05-07 12:48 51.11952 11.69375 17096 ft 323 kts 85°
2026-05-07 12:48 51.12108 11.72921 16298 ft 319 kts 85°
2026-05-07 12:48 51.12274 11.76405 15528 ft 314 kts 85°
2026-05-07 12:49 51.12445 11.79847 14775 ft 309 kts 85°
2026-05-07 12:49 51.12616 11.83231 14047 ft 305 kts 85°
2026-05-07 12:49 51.12784 11.86568 13280 ft 301 kts 85°
2026-05-07 12:49 51.12921 11.89307 12615 ft 297 kts 86°
2026-05-07 12:50 51.13062 11.92130 11945 ft 294 kts 85°
2026-05-07 12:50 51.13223 11.95370 11246 ft 293 kts 86°
2026-05-07 12:50 51.13382 11.98610 10524 ft 294 kts 86°
2026-05-07 12:50 51.13540 12.01847 9731 ft 293 kts 86°
2026-05-07 12:51 51.13698 12.05069 8930 ft 289 kts 86°
2026-05-07 12:51 51.13852 12.08240 8149 ft 285 kts 86°
2026-05-07 12:51 51.14002 12.11369 7392 ft 281 kts 85°
2026-05-07 12:51 51.14149 12.14457 6637 ft 277 kts 85°
2026-05-07 12:52 51.14293 12.17466 5893 ft 274 kts 85°
2026-05-07 12:52 51.14434 12.20439 5357 ft 261 kts 85°
2026-05-07 12:52 51.14564 12.23200 5105 ft 241 kts 85°
2026-05-07 12:52 51.14686 12.25820 5020 ft 240 kts 85°
2026-05-07 12:53 51.14814 12.28557 5027 ft 251 kts 85°
2026-05-07 12:53 51.14943 12.31319 4988 ft 247 kts 85°
2026-05-07 12:53 51.15067 12.33992 4960 ft 237 kts 85°
2026-05-07 12:53 51.15185 12.36560 4973 ft 229 kts 85°
2026-05-07 12:54 51.15409 12.39071 4952 ft 234 kts 64°
2026-05-07 12:54 51.16451 12.41001 5009 ft 236 kts 25°
2026-05-07 12:54 51.18044 12.41473 4989 ft 236 kts 348°
2026-05-07 12:54 51.19537 12.40483 4981 ft 235 kts 320°
2026-05-07 12:55 51.20592 12.38539 4998 ft 232 kts 297°
2026-05-07 12:55 51.21221 12.36163 5009 ft 232 kts 289°
2026-05-07 12:55 51.21746 12.33729 4995 ft 231 kts 289°
2026-05-07 12:55 51.22258 12.31303 4958 ft 231 kts 289°
2026-05-07 12:56 51.22775 12.28862 4746 ft 233 kts 289°
2026-05-07 12:56 51.23284 12.26487 4489 ft 231 kts 289°
2026-05-07 12:56 51.23804 12.24077 4275 ft 230 kts 290°
2026-05-07 12:56 51.24184 12.21625 4079 ft 227 kts 277°
2026-05-07 12:57 51.24325 12.19142 4059 ft 230 kts 275°
2026-05-07 12:57 51.24440 12.16569 4026 ft 234 kts 275°
2026-05-07 12:57 51.24560 12.13963 4007 ft 235 kts 276°
2026-05-07 12:57 51.24685 12.11375 3981 ft 232 kts 276°
2026-05-07 12:58 51.24813 12.08832 3964 ft 228 kts 276°
2026-05-07 12:58 51.24945 12.06302 4009 ft 231 kts 276°
2026-05-07 12:58 51.25084 12.03727 4007 ft 235 kts 276°
2026-05-07 12:58 51.25226 12.01117 4011 ft 237 kts 276°
2026-05-07 12:59 51.25371 11.98487 3940 ft 238 kts 277°
2026-05-07 12:59 51.25513 11.95910 3938 ft 227 kts 276°
2026-05-07 12:59 51.25647 11.93472 3851 ft 213 kts 277°
2026-05-07 12:59 51.26027 11.91579 3629 ft 194 kts 312°
2026-05-07 13:00 51.27104 11.90562 3367 ft 175 kts 352°
2026-05-07 13:00 51.28352 11.90334 3487 ft 186 kts 355°
2026-05-07 13:00 51.29663 11.90161 3597 ft 194 kts 356°
2026-05-07 13:00 51.31032 11.90012 3505 ft 200 kts 356°
2026-05-07 13:01 51.32432 11.89876 3198 ft 202 kts 356°
2026-05-07 13:01 51.33789 11.89750 3036 ft 188 kts 357°
2026-05-07 13:01 51.35039 11.89635 2984 ft 170 kts 358°
2026-05-07 13:01 51.36214 11.89531 2934 ft 168 kts 357°
2026-05-07 13:02 51.37382 11.89477 2713 ft 166 kts
2026-05-07 13:02 51.38406 11.90217 2582 ft 165 kts 36°
2026-05-07 13:02 51.39256 11.91383 2480 ft 161 kts 50°
2026-05-07 13:02 51.39675 11.93065 2492 ft 163 kts 79°
2026-05-07 13:03 51.39874 11.94868 2546 ft 166 kts 77°
2026-05-07 13:03 51.40042 11.96712 2515 ft 166 kts 81°
2026-05-07 13:03 51.40151 11.98519 2492 ft 165 kts 83°
2026-05-07 13:03 51.40240 12.00333 2499 ft 162 kts 83°
2026-05-07 13:04 51.40328 12.02170 2350 ft 171 kts 84°
2026-05-07 13:04 51.40419 12.04007 2326 ft 165 kts 82°
2026-05-07 13:04 51.40514 12.05851 2321 ft 167 kts 83°
2026-05-07 13:04 51.40584 12.07727 2073 ft 168 kts 83°
2026-05-07 13:05 51.40667 12.09591 1838 ft 167 kts 83°
2026-05-07 13:05 51.40751 12.11426 1591 ft 166 kts 83°
2026-05-07 13:05 51.40837 12.13276 1367 ft 166 kts 83°
2026-05-07 13:05 51.40933 12.15112 1097 ft 164 kts 84°
2026-05-07 13:06 51.40987 12.16922 850 ft 166 kts 85°
2026-05-07 13:06 51.41083 12.18746 743 ft 163 kts 83°
2026-05-07 13:06 51.41171 12.20579 479 ft 167 kts 83°
2026-05-07 13:06 51.41254 12.22359 426 ft 144 kts 86°
2026-05-07 13:07 51.41316 12.23720 429 ft 100 kts 86°
2026-05-07 13:07 51.41350 12.24506 429 ft 48 kts 86°
2026-05-07 13:07 51.41370 12.24974 438 ft 37 kts 86°
2026-05-07 13:07 51.41352 12.25305 427 ft 28 kts 117°
2026-05-07 13:08 51.41289 12.25407 432 ft 7 kts 157°
2026-05-07 13:08 51.41273 12.25414 427 ft 0 kts 166°
2026-05-07 13:09 51.41257 12.25422 426 ft 10 kts 162°
2026-05-07 13:09 51.41161 12.25442 432 ft 16 kts 197°
2026-05-07 13:09 51.41128 12.25308 439 ft 20 kts 268°
2026-05-07 13:09 51.41114 12.25127 430 ft 11 kts 249°
2026-05-07 13:10 51.41065 12.25055 426 ft 9 kts 209°
2026-05-07 13:10 51.41012 12.25032 433 ft 12 kts 188°
2026-05-07 13:10 51.40963 12.25034 427 ft 9 kts 173°